Temperature
17 17 17 17 17 17 17 17 17 17 17 17 17 17 17 17 17 17 17 17 17 17 17 17 17 17 17 17 17 17 17 17 17 17 17 17 17 17 17 17 17 18 18
17 17 17 17 17 17 17 17 17 17 17 17 17 17 17 17 17 17 17 17 17 17 17 17 17 17 17 17 17 17 17 17 17 17 17 17 17 17 17 17 17 17 17
17 17 17 17 17 17 17 17 17 17 17 17 17 17 16 16 16 16 16 16 16 16 16 16 16 16 16 16 16 16 16 16 16 17 17 17 17 17 17 17 17 17 17
17 17 17 17 17 17 17 17 17 17 17 17 17 16 16 16 16 16 16 16 16 16 16 16 16 16 16 16 16 16 16 16 16 16 17 17 17 17 17 17 17 17 17
18 17 17 17 17 17 17 17 17 17 17 17 17 16 16 16 16 16 16 16 16 16 16 16 16 16 16 16 16 16 16 16 16 16 16 16 17 16 16 16 16 16 17
18 18 17 17 17 17 17 17 17 17 17 17 17 16 16 16 16 16 16 16 16 16 16 16 16 16 16 16 16 16 16 16 16 16 16 16 16 16 16 16 16 16 16
18 18 18 17 17 17 17 17 17 17 17 17 16 16 16 16 16 16 16 16 16 16 16 16 16 16 16 16 16 16 16 16 16 16 16 16 16 16 16 16 16 16 16
18 18 18 17 17 17 17 17 17 17 17 16 16 16 16 15 15 15 15 15 15 15 16 16 16 16 16 16 16 16 16 16 16 16 16 16 16 16 16 16 16 16 16
18 18 17 17 17 17 17 17 17 17 17 17 16 16 16 16 16 15 15 15 15 15 15 15 16 16 16 16 16 16 16 16 16 16 16 16 16 16 16 16 16 16 16
17 17 17 17 17 17 17 17 17 17 17 17 16 16 16 16 16 15 15 15 15 15 15 15 15 15 16 16 16 16 16 16 16 16 16 16 16 16 16 16 16 16 16
17 17 17 17 17 17 17 17 17 17 17 17 16 16 16 16 16 16 15 15 15 15 15 15 15 15 15 15 16 16 16 16 16 16 16 16 16 16 16 16 16 15 15
17 17 17 17 17 16 16 16 16 16 16 16 16 16 16 16 16 16 16 16 16 15 15 15 15 15 15 15 15 15 16 16 16 16 16 16 16 16 15 15 15 15 15
17 17 17 16 16 16 16 16 16 16 16 16 16 16 16 16 16 16 15 15 15 15 15 15 15 15 15 15 15 15 15 15 15 15 15 15 15 15 15 15 15 15 15
17 16 16 16 16 16 16 16 16 16 16 15 15 15 15 15 15 15 15 15 15 15 15 15 15 15 15 15 15 15 15 15 15 15 15 15 15 15 15 15 15 15 15
16 16 16 16 16 16 16 15 15 15 15 15 15 15 15 15 15 15 15 15 15 15 15 16 16 16 16 15 15 15 15 15 15 15 15 15 14 14 14 14 14 14 14
16 16 16 16 16 15 15 15 15 15 15 15 15 15 14 14 14 14 14 15 15 15 15 16 16 16 16 16 15 15 15 15 15 15 15 14 14 14 14 14 14 14 14
16 16 16 16 16 15 15 15 15 15 14 14 14 14 14 14 14 14 14 14 14 15 15 15 15 15 15 15 15 15 15 15 15 15 15 14 14 14 14 14 14 14 14
16 16 16 16 16 15 15 15 15 14 14 14 14 14 14 14 14 13 13 14 14 14 14 15 15 15 15 15 15 15 15 15 15 14 14 14 14 14 14 14 14 14 14
16 16 16 16 16 15 15 15 15 14 14 14 14 14 13 13 13 13 13 13 13 13 13 14 14 15 15 15 15 15 14 14 14 14 14 14 14 14 14 14 14 14 14
16 16 15 15 15 15 15 15 15 14 14 14 14 13 13 13 13 13 13 13 13 13 13 13 14 14 14 15 15 14 14 14 14 14 14 14 14 14 14 14 14 14 14
16 15 15 15 15 15 15 15 15 15 14 14 14 13 13 13 13 13 13 13 13 13 13 13 13 13 14 14 14 15 14 14 14 14 14 14 14 14 14 14 14 14 14
16 15 15 15 15 15 15 15 15 15 14 14 14 14 13 13 13 13 13 13 13 13 13 13 13 13 14 14 14 14 14 14 14 14 14 14 14 14 14 14 14 13 14
15 15 15 15 15 15 15 15 15 15 15 14 14 14 14 14 13 13 13 13 13 13 13 13 13 13 13 13 14 14 14 14 14 14 14 14 14 14 14 13 13 13 13
15 15 15 15 15 15 15 15 15 15 15 14 14 14 14 14 14 14 13 13 13 13 13 13 13 13 13 13 13 13 13 13 13 13 13 13 14 14 14 13 13 13 13
14 14 14 15 15 15 15 15 14 14 14 14 14 14 14 14 14 14 14 13 13 13 13 13 13 13 13 13 13 13 13 13 13 14 13 13 13 13 13 14 13 13 13
13 13 14 14 14 14 14 14 14 14 14 14 14 14 14 14 14 14 14 13 13 13 13 13 13 13 13 13 13 13 13 13 13 13 14 13 13 13 13 14 14 14 14
Wind_Speed
6 5 5 6 7 7 5 3 2 1 3 7 9 8 6 7 7 7 8 9 8 8 8 8 8 8 7 7 7 7 7 7 7 7 6 5 5 4 3 3 3 3 3
8 6 5 5 6 8 7 3 3 3 4 5 6 7 7 7 8 8 8 9 9 8 8 9 8 8 7 7 7 6 6 6 6 5 5 5 4 3 2 2 2 3 3
12 8 7 6 6 10 7 3 4 4 5 6 6 6 6 6 7 7 8 9 10 10 9 9 9 8 8 7 7 6 5 5 4 4 4 3 3 3 2 1 1 2 3
14 10 8 7 8 8 4 5 4 4 4 5 5 5 4 5 6 6 6 8 9 9 10 10 10 9 8 7 7 6 5 5 4 3 3 2 2 2 2 1 0 1 2
12 9 7 7 8 5 5 6 4 4 4 5 5 4 4 5 5 6 4 6 8 9 9 10 10 10 9 8 7 6 5 5 3 3 2 2 2 2 2 2 1 1 2
9 7 5 7 6 5 5 5 6 4 4 5 5 4 3 4 5 6 5 5 7 8 9 9 9 9 9 9 8 7 5 5 4 3 1 1 1 2 2 2 1 0 1
8 6 6 6 6 6 7 7 5 5 3 3 4 3 3 3 4 5 4 4 5 6 8 8 7 8 7 8 8 7 6 5 4 3 2 1 0 1 2 2 1 1 0
7 7 7 7 7 6 7 7 6 5 3 3 4 4 2 2 2 2 4 6 6 5 6 7 8 7 7 7 7 7 7 5 5 4 3 2 1 1 1 2 2 1 0
7 6 6 6 7 7 7 7 8 8 5 2 3 5 4 4 2 1 3 4 5 5 4 7 8 8 8 7 6 5 6 6 5 4 4 4 2 1 1 1 2 1 1
6 7 6 7 6 6 7 8 8 6 7 5 3 2 3 4 3 2 2 2 4 5 6 5 8 10 9 8 7 5 4 5 5 4 4 4 3 2 1 1 1 1 1
5 6 6 7 7 6 7 8 7 6 6 6 5 4 3 2 2 3 3 2 2 3 4 6 6 9 11 10 8 6 4 3 3 4 4 5 4 3 1 1 1 2 2
4 6 6 7 7 7 7 8 8 8 7 6 5 5 5 4 3 3 2 2 4 4 4 4 5 8 11 12 10 9 6 4 3 3 4 5 5 5 3 2 2 2 2
3 4 5 6 6 7 7 7 8 8 8 8 7 5 5 5 4 4 3 2 3 3 3 3 5 8 12 13 12 12 9 6 4 2 2 4 5 6 6 5 5 5 5
3 3 4 5 5 6 6 6 6 7 6 7 8 7 5 5 5 5 4 4 3 3 3 5 4 6 11 14 15 14 11 8 6 4 2 2 4 5 6 7 8 8 7
2 3 3 4 4 4 5 6 5 6 7 7 7 7 6 5 5 5 5 5 5 5 6 5 4 6 9 13 15 15 13 11 9 6 4 3 2 4 5 5 6 7 7
2 3 3 3 3 3 4 4 4 4 6 6 6 7 7 6 6 5 5 5 4 4 5 5 5 4 6 10 14 15 14 13 11 9 6 5 3 2 2 3 4 5 6
4 4 4 4 4 3 3 4 3 4 5 5 5 7 8 7 7 6 5 5 4 4 4 3 2 3 6 7 8 11 12 12 12 11 9 7 6 4 2 1 1 2 3
4 4 4 4 4 4 4 4 3 4 4 5 5 5 6 6 7 7 6 5 4 4 3 3 2 3 5 7 7 7 8 11 12 12 12 10 8 7 5 4 2 1 1
5 5 5 5 5 4 4 4 4 3 3 3 4 5 5 6 7 6 7 6 4 4 3 3 3 2 2 3 4 4 4 4 9 11 13 12 11 9 8 6 5 4 2
6 6 6 6 6 5 5 5 5 4 4 3 3 3 4 5 6 6 6 7 6 5 4 3 3 2 2 3 4 4 4 4 5 7 10 11 12 11 10 9 8 7 6
6 6 6 6 6 6 6 6 6 6 5 4 4 4 4 6 7 6 5 6 6 5 4 4 4 3 3 3 5 5 6 4 4 4 4 5 7 8 10 12 12 11 9
4 5 6 7 7 7 9 12 9 6 6 6 5 5 5 6 9 10 9 9 9 7 6 5 4 5 5 5 5 5 5 4 4 5 6 5 4 6 9 13 14 13 13
2 3 5 6 7 9 11 13 14 8 7 6 6 5 5 6 9 6 8 10 10 11 11 7 6 7 6 7 6 6 7 7 7 5 6 5 5 7 8 14 17 17 16
1 2 4 5 6 8 12 12 13 8 6 6 6 7 7 6 7 8 7 7 7 8 9 9 8 8 8 7 8 8 9 7 3 4 6 6 5 6 5 12 18 20 20
2 2 2 4 5 7 10 11 9 5 4 5 5 5 7 7 9 10 7 7 7 6 8 11 12 11 12 12 9 5 5 5 5 5 6 5 4 4 3 4 13 21 23
2 2 2 2 3 5 6 8 8 4 4 3 2 2 5 7 7 8 7 7 7 6 4 4 5 7 7 7 10 9 8 6 4 5 6 7 4 4 3 3 3 10 16
Wind_Direction
179 185 195 205 221 231 238 247 247 204 124 129 136 130 116 110 102 92 92 100 107 116 121 120 119 120 126 135 143 148 150 151 153 154 152 153 151 142 130 108 86 65 47
184 188 196 203 221 230 234 217 184 150 122 120 126 128 126 121 110 100 94 93 98 104 111 116 116 116 117 121 128 139 149 153 157 160 162 167 166 161 151 124 87 61 41
190 190 196 203 213 224 223 183 161 127 113 114 125 135 136 133 123 113 105 98 94 94 100 104 107 109 111 113 117 123 133 143 151 160 169 178 181 180 178 152 83 51 35
188 189 194 203 206 203 180 160 151 125 116 121 133 148 144 138 135 130 114 105 100 96 93 95 94 96 100 104 108 111 116 122 131 146 167 187 200 207 210 193 85 40 28
190 186 192 200 196 176 168 166 155 144 138 136 139 134 140 151 152 150 139 129 121 113 102 94 88 84 86 88 96 102 106 110 117 131 151 181 211 222 226 212 220 24 22
195 189 192 195 187 173 171 163 152 147 145 147 126 103 109 148 162 162 165 157 148 138 124 112 97 84 79 75 75 83 92 95 95 100 116 172 221 240 236 227 226 297 29
190 188 199 195 187 182 179 162 145 144 133 123 96 69 31 66 141 165 163 159 167 165 150 140 126 112 93 74 65 66 69 79 78 75 71 62 266 269 253 236 230 227 59
194 197 199 197 191 184 178 169 148 139 142 137 129 112 62 6 14 154 171 176 179 174 176 173 156 138 125 102 80 62 51 63 68 62 54 35 357 305 283 256 256 255 267
198 198 198 199 196 185 184 180 164 151 157 165 149 145 153 200 243 262 209 196 180 178 185 180 178 166 150 133 110 81 58 50 56 51 41 28 13 340 309 276 266 253 268
199 197 190 194 194 192 189 189 177 165 155 164 167 159 149 152 154 199 271 245 210 193 187 180 178 178 171 155 139 118 84 59 48 42 36 28 19 360 297 288 300 279 271
207 198 191 191 192 194 196 193 182 174 169 169 165 156 141 142 135 149 203 237 249 230 200 182 172 176 178 170 158 149 129 94 62 44 32 26 24 27 32 30 339 322 298
205 202 196 198 196 195 196 196 186 184 189 180 175 165 158 159 172 156 167 208 219 237 213 190 178 178 181 180 174 167 158 142 110 68 44 34 31 30 28 28 19 5 359
208 204 193 198 200 199 194 189 189 192 189 189 186 184 174 170 156 151 150 192 220 239 200 206 197 183 185 185 183 175 172 168 155 122 72 51 43 41 40 42 42 46 41
210 201 187 193 200 196 192 187 192 198 193 198 201 190 182 183 169 164 161 162 190 221 218 218 194 192 188 186 187 180 179 179 175 166 135 85 64 57 53 54 52 47 41
184 163 161 168 180 184 186 183 197 204 199 202 202 195 192 190 181 175 169 172 175 195 219 220 202 196 188 187 188 184 184 186 185 184 178 152 108 80 65 60 54 48 44
143 135 135 139 142 152 169 179 191 193 195 201 199 198 200 195 187 178 180 183 181 180 210 219 210 192 180 190 193 190 190 191 192 193 193 186 168 137 94 66 52 47 44
159 157 156 149 148 149 151 159 174 173 186 198 202 203 207 194 186 182 176 176 183 173 197 226 212 191 174 176 177 190 196 196 198 200 201 200 197 194 195 193 34 33 35
178 179 172 169 170 164 157 158 165 167 182 196 201 202 205 195 186 178 174 176 182 178 184 203 211 187 185 184 174 181 193 201 202 207 207 207 207 210 215 223 232 260 334
192 191 187 194 196 187 178 175 168 167 179 190 193 196 195 185 181 175 171 174 180 184 177 188 208 204 178 155 151 184 192 196 205 212 212 213 214 217 221 225 229 234 236
200 204 206 208 205 198 193 189 181 178 182 188 188 186 180 178 175 171 172 173 171 175 177 185 198 208 199 158 154 173 190 205 207 204 208 211 215 221 224 226 228 228 226
212 209 211 215 209 203 206 197 192 190 189 194 197 195 194 194 193 187 181 175 171 177 182 194 200 193 191 171 193 187 198 189 212 199 194 207 208 219 224 227 228 227 223
230 212 211 213 212 219 214 201 194 195 193 197 205 210 216 218 219 216 211 198 187 187 195 199 203 207 209 206 192 186 179 172 227 209 185 219 192 218 222 224 226 225 222
243 227 220 213 218 227 222 209 201 191 195 203 207 209 223 225 222 222 229 228 220 216 208 200 209 217 213 208 193 194 194 199 214 186 173 217 201 225 222 224 224 223 222
274 239 234 227 225 233 228 216 202 192 198 209 211 211 220 234 222 212 216 223 230 233 228 225 224 229 226 215 203 205 206 213 214 179 170 204 204 219 219 218 223 220 219
317 283 255 232 228 243 232 215 192 176 195 213 221 219 216 227 236 220 207 222 237 245 245 237 234 237 238 231 209 192 184 185 221 219 190 199 203 203 218 225 225 221 216
315 315 313 260 230 241 237 215 183 168 184 198 227 243 224 220 231 210 197 206 228 243 241 250 244 249 244 238 217 203 196 195 202 225 197 190 182 159 240 252 216 215 213
Height
1532 1534 1536 1537 1538 1539 1540 1541 1541 1541 1541 1542 1542 1543 1542 1542 1541 1541 1541 1542 1542 1542 1543 1543 1544 1544 1545 1545 1546 1546 1547 1547 1548 1548 1548 1549 1549 1549 1549 1549 1549 1548 1548
1532 1534 1536 1537 1538 1539 1540 1541 1542 1542 1542 1542 1543 1543 1543 1542 1542 1542 1542 1542 1542 1543 1543 1544 1544 1545 1545 1545 1546 1546 1547 1547 1547 1548 1548 1548 1548 1548 1549 1549 1548 1548 1548
1530 1533 1535 1536 1538 1539 1540 1541 1542 1543 1543 1543 1543 1543 1543 1543 1543 1543 1543 1543 1543 1544 1544 1544 1545 1545 1545 1545 1546 1546 1546 1546 1546 1547 1547 1547 1548 1548 1548 1548 1548 1548 1547
1529 1531 1532 1534 1536 1537 1539 1540 1541 1542 1543 1543 1543 1543 1543 1544 1544 1544 1544 1544 1544 1545 1545 1545 1545 1545 1546 1546 1546 1546 1546 1546 1546 1546 1546 1546 1546 1547 1547 1547 1547 1547 1547
1527 1529 1530 1532 1534 1535 1537 1538 1540 1541 1542 1543 1543 1543 1543 1543 1544 1544 1544 1545 1545 1545 1545 1546 1546 1546 1546 1546 1546 1546 1546 1546 1545 1545 1545 1545 1545 1546 1546 1546 1546 1546 1546
1525 1526 1528 1530 1532 1533 1535 1536 1538 1540 1541 1542 1543 1543 1543 1543 1543 1544 1544 1545 1545 1546 1546 1546 1546 1546 1546 1547 1547 1546 1546 1546 1545 1545 1545 1545 1545 1545 1545 1545 1545 1546 1546
1522 1523 1525 1527 1529 1530 1532 1534 1535 1537 1539 1540 1542 1543 1543 1543 1543 1544 1544 1545 1545 1545 1545 1546 1546 1547 1547 1547 1547 1547 1547 1546 1546 1545 1545 1544 1544 1544 1544 1544 1545 1545 1545
1519 1521 1522 1523 1525 1527 1528 1530 1532 1534 1536 1538 1539 1541 1542 1544 1543 1543 1543 1544 1545 1545 1545 1546 1546 1546 1547 1547 1547 1547 1547 1547 1546 1545 1545 1544 1544 1544 1544 1544 1544 1544 1544
1516 1517 1518 1520 1521 1523 1524 1526 1528 1530 1532 1534 1536 1538 1539 1540 1541 1542 1542 1543 1544 1545 1545 1545 1546 1546 1547 1547 1547 1547 1547 1547 1546 1546 1545 1544 1544 1543 1543 1543 1543 1543 1543
1512 1513 1515 1516 1517 1519 1520 1522 1524 1526 1528 1530 1532 1534 1536 1537 1538 1539 1541 1541 1542 1543 1544 1544 1545 1546 1546 1546 1547 1547 1547 1547 1546 1546 1545 1544 1544 1543 1543 1542 1542 1542 1542
1508 1509 1511 1512 1513 1514 1516 1518 1519 1521 1524 1526 1528 1530 1532 1534 1535 1536 1537 1539 1540 1541 1542 1543 1544 1545 1545 1546 1546 1546 1546 1546 1546 1545 1545 1544 1543 1543 1542 1542 1542 1541 1541
1505 1506 1507 1508 1509 1510 1512 1513 1515 1517 1519 1521 1524 1525 1527 1529 1531 1533 1534 1536 1537 1539 1540 1541 1542 1543 1544 1544 1545 1545 1545 1545 1545 1545 1544 1544 1543 1542 1542 1541 1541 1541 1540
1503 1503 1503 1504 1505 1506 1507 1509 1511 1512 1513 1516 1519 1521 1523 1525 1527 1529 1531 1533 1535 1537 1538 1539 1540 1541 1542 1543 1543 1543 1544 1544 1544 1544 1543 1543 1542 1541 1541 1540 1540 1540 1540
1500 1500 1501 1501 1501 1502 1503 1504 1505 1507 1509 1511 1513 1516 1518 1521 1523 1525 1527 1530 1532 1534 1535 1536 1537 1539 1540 1541 1542 1542 1542 1542 1542 1542 1542 1541 1541 1540 1540 1539 1539 1539 1539
1498 1498 1498 1498 1498 1499 1499 1500 1501 1503 1504 1505 1508 1510 1512 1515 1518 1520 1523 1525 1528 1530 1531 1533 1534 1536 1538 1539 1540 1541 1541 1541 1541 1541 1540 1540 1539 1539 1538 1538 1538 1538 1538
1497 1497 1496 1496 1496 1496 1497 1497 1498 1499 1500 1501 1503 1505 1506 1509 1512 1515 1517 1520 1523 1526 1527 1529 1531 1533 1535 1537 1538 1539 1539 1539 1540 1539 1539 1539 1538 1538 1537 1537 1537 1537 1537
1495 1495 1495 1495 1495 1495 1495 1495 1495 1495 1496 1497 1499 1500 1502 1504 1507 1509 1512 1515 1518 1521 1523 1526 1528 1530 1532 1533 1535 1536 1537 1537 1538 1538 1538 1537 1537 1537 1536 1536 1536 1536 1536
1495 1495 1495 1495 1494 1494 1494 1494 1493 1493 1494 1495 1496 1497 1498 1500 1501 1504 1506 1509 1513 1516 1519 1522 1524 1526 1528 1530 1531 1533 1534 1535 1535 1536 1536 1536 1535 1535 1535 1534 1534 1534 1534
1494 1494 1494 1494 1494 1494 1494 1493 1493 1493 1493 1493 1494 1494 1495 1496 1497 1500 1502 1505 1508 1511 1514 1518 1520 1523 1525 1526 1528 1529 1530 1531 1532 1533 1533 1533 1533 1533 1533 1533 1532 1532 1532
1493 1493 1494 1494 1494 1494 1493 1493 1493 1492 1492 1492 1493 1493 1494 1495 1496 1498 1500 1502 1504 1507 1510 1513 1516 1518 1521 1522 1524 1525 1526 1527 1528 1530 1530 1531 1531 1531 1531 1531 1530 1530 1530
1491 1491 1492 1492 1493 1493 1492 1492 1492 1492 1492 1492 1493 1493 1494 1495 1496 1497 1498 1500 1502 1504 1507 1509 1512 1514 1516 1517 1519 1520 1522 1523 1524 1526 1526 1527 1527 1528 1528 1528 1528 1527 1527
1489 1489 1489 1490 1490 1491 1491 1491 1491 1492 1492 1492 1493 1493 1494 1495 1496 1497 1498 1499 1501 1502 1504 1506 1507 1509 1511 1513 1515 1516 1517 1518 1519 1521 1522 1522 1523 1524 1525 1525 1525 1524 1524
1486 1486 1486 1486 1487 1488 1489 1489 1490 1490 1491 1491 1492 1493 1493 1494 1495 1496 1497 1498 1499 1500 1501 1503 1504 1505 1507 1509 1511 1511 1512 1513 1514 1516 1517 1517 1518 1519 1521 1521 1521 1521 1521
1482 1482 1482 1483 1483 1484 1485 1486 1487 1488 1489 1490 1491 1492 1492 1493 1494 1495 1495 1496 1497 1497 1498 1499 1500 1501 1503 1504 1505 1506 1507 1509 1510 1510 1512 1512 1513 1514 1516 1516 1517 1518 1518
1478 1478 1479 1479 1479 1480 1481 1483 1484 1485 1486 1487 1489 1490 1490 1491 1492 1492 1493 1493 1494 1494 1495 1496 1496 1497 1498 1499 1500 1501 1502 1503 1503 1504 1506 1507 1507 1509 1510 1511 1513 1513 1514
1474 1474 1474 1475 1476 1477 1478 1479 1480 1482 1483 1484 1486 1487 1488 1489 1490 1490 1490 1490 1490 1491 1492 1492 1492 1493 1494 1494 1495 1496 1497 1498 1498 1499 1500 1501 1502 1504 1505 1506 1507 1509 1509